Location: Tucson
(32.2217°N, 110.9265°W)
Time: 18:13:31
(UTC-07:00)

X-37B - Pass Details

Date: 04 October 2021
Orbit: 342 x 346 km, 45.0° (Epoch: 22 October)

Event Time Altitude Azimuth Distance (km) Brightness Sun altitude
Exits shadow 03:51:42 - 62° (ENE) 1,627 4.7 -31.9°
Enters shadow 04:48:42 -68° 291° (WNW) 12,180 8.1 -20.1°
Maximum altitude 05:25:12 62° 33° (NNE) 388 0.7 -12.4°
